Wind_Speed
34 40 42 42 40 38 36 33 32 28 25 22 23 21 20 33 31 25 19 20 10 5 2 11 7 6 12 13 14 10 7 4 7 7 7 6 8 11 13 15 12 12 8 10 13 16 19 8 13 8 4 2 5 5
31 42 43 42 41 38 37 33 31 28 24 21 19 18 18 31 33 29 17 18 10 3 1 3 5 5 4 8 3 9 9 9 9 8 8 7 8 6 14 11 17 12 12 9 10 10 5 6 9 10 3 7 6 6
30 38 44 42 42 38 36 33 31 27 23 20 21 21 16 17 31 22 22 22 11 4 3 6 8 5 1 3 3 4 9 14 10 9 6 6 9 11 10 13 15 15 15 11 13 12 10 9 10 11 8 8 8 6
26 35 45 42 41 39 36 33 30 27 24 21 22 22 23 18 25 16 22 22 7 5 3 2 7 8 7 6 5 3 5 3 5 5 9 6 7 11 9 11 13 10 12 16 15 12 13 13 10 11 12 9 8 6
28 37 47 43 43 40 36 33 30 28 25 24 25 27 27 28 24 13 11 16 15 1 3 6 9 11 11 6 5 2 5 5 5 6 7 11 10 8 5 8 11 12 11 10 9 9 10 11 2 1 5 10 10 10
28 43 48 44 43 40 36 33 31 28 27 28 26 27 31 29 25 13 2 9 11 7 2 5 5 11 14 10 6 5 7 8 8 6 8 9 12 5 6 12 15 14 13 13 14 16 14 4 4 3 6 5 6 9
27 49 49 46 44 39 36 33 31 28 29 29 30 30 36 30 20 4 1 9 22 13 3 5 6 6 15 11 4 4 8 4 4 6 7 10 9 6 9 12 6 5 8 13 15 10 10 9 6 7 6 4 4 7
49 52 50 46 42 38 36 32 30 29 30 29 29 31 30 22 10 2 4 29 20 3 3 3 4 5 11 5 4 7 4 5 3 2 3 10 7 6 5 6 15 17 17 12 11 11 9 1 6 7 6 6 6 6
51 52 48 43 40 38 35 32 31 30 28 30 35 34 20 4 2 7 26 14 7 6 4 3 5 5 9 8 5 4 4 3 3 4 6 5 6 9 7 13 13 14 14 11 12 9 8 8 8 7 8 7 8 6
52 47 44 43 41 38 35 35 32 30 31 37 25 6 2 6 26 30 7 3 5 3 1 4 7 4 7 4 6 5 2 4 3 7 3 5 9 15 17 12 11 9 12 8 9 10 9 9 9 8 7 5 5 5
47 47 46 43 41 39 35 30 39 48 38 6 3 2 29 26 10 3 3 4 4 4 5 5 7 6 5 5 5 3 2 3 4 4 6 4 5 12 17 16 8 5 10 10 8 4 8 7 7 6 4 3 3 3
46 45 43 42 41 37 34 47 30 11 11 10 15 17 9 3 2 4 4 4 5 5 7 9 8 6 3 2 2 3 3 3 4 7 4 4 4 4 2 4 7 5 7 9 6 6 5 3 2 3 4 5 4 7
41 40 39 39 37 37 42 27 10 37 33 28 8 4 4 2 3 4 8 4 5 5 6 9 8 5 2 4 3 3 4 4 4 3 3 2 6 4 5 4 5 6 9 8 7 7 7 8 9 8 7 12 10 8
34 35 34 33 34 33 20 8 21 8 1 2 3 3 4 4 4 3 3 2 2 6 10 11 6 4 2 5 2 4 1 3 3 4 5 2 5 6 5 5 8 9 7 8 8 9 9 9 9 10 8 9 10 9
32 33 32 31 26 10 6 12 10 9 4 0 1 2 2 1 1 2 1 2 2 6 10 10 5 4 3 3 4 2 3 4 5 2 3 4 6 7 7 7 7 6 6 7 7 6 8 9 9 8 8 9 9 10
29 26 22 20 11 4 10 9 9 6 2 2 3 2 1 2 2 2 1 3 3 8 9 5 4 4 4 4 5 7 4 4 2 3 3 5 6 5 7 7 6 6 6 7 8 8 9 8 8 10 9 9 9 10
14 8 14 8 9 5 9 3 3 3 3 3 1 0 2 3 2 2 3 3 6 6 4 3 6 6 4 4 4 3 1 3 3 3 3 4 6 6 7 7 6 8 8 8 8 8 8 9 10 10 7 8 9 8
5 13 14 6 7 7 6 4 2 2 3 1 3 2 1 1 2 1 3 3 4 4 4 1 2 4 3 3 2 3 2 3 3 2 3 4 5 5 7 7 8 9 8 8 7 8 8 8 8 6 9 10 10 9
2 7 12 5 3 2 2 2 2 3 2 1 2 1 1 0 2 2 3 5 6 3 3 2 1 2 1 2 2 3 4 4 4 4 4 5 7 7 8 9 9 9 8 8 8 7 7 7 5 8 9 10 8 10
16 11 12 14 12 3 3 2 2 3 2 1 1 1 1 1 1 3 3 4 3 2 2 1 1 2 2 1 0 1 5 4 6 5 5 4 6 8 7 8 7 9 8 7 6 6 8 7 6 7 7 8 9 10
7 5 7 7 5 6 3 2 3 2 2 2 1 2 0 1 1 0 1 0 2 1 2 1 2 2 2 3 4 5 4 4 2 2 4 5 6 7 7 6 8 6 6 6 5 5 3 4 6 6 7 7 6 9
4 11 6 9 6 4 3 3 3 1 2 0 2 1 2 2 1 1 1 1 2 2 2 3 3 4 4 4 4 6 6 7 5 6 9 11 5 5 5 7 6 4 4 5 4 5 5 5 6 7 8 8 8 9
7 4 3 4 3 3 1 1 2 2 2 1 2 2 2 2 2 2 1 1 1 1 4 5 6 6 7 7 7 6 5 5 3 5 6 5 7 5 6 6 4 5 3 4 4 6 6 7 7 8 8 9 10 10
4 2 1 2 2 1 1 2 2 2 2 2 2 2 2 2 2 2 2 2 3 4 5 7 7 6 6 6 4 4 4 4 6 6 5 5 4 5 5 4 4 3 3 4 5 5 7 7 8 9 9 10 11 11
3 1 2 2 1 2 3 2 2 3 3 3 2 2 2 2 3 3 3 4 6 5 5 6 6 5 5 4 4 5 3 3 3 5 3 2 3 4 4 4 4 3 4 5 6 7 7 8 8 9 10 10 11 12
1 1 2 1 1 2 2 2 3 3 2 3 3 1 1 2 3 4 2 4 4 4 5 5 5 5 5 4 4 4 4 2 3 3 4 2 3 3 3 4 4 6 7 6 7 7 8 7 8 9 9 9 10 12
2 1 1 0 2 2 2 1 1 3 3 4 2 3 3 4 5 2 2 2 1 3 7 8 5 5 4 6 7 6 5 4 2 4 4 2 1 1 0 3 2 5 7 6 6 7 8 9 9 10 9 10 11 11
2 1 2 1 2 1 2 2 2 3 2 1 2 4 3 2 2 2 3 2 5 7 8 6 4 5 7 8 8 8 6 5 5 4 3 1 1 1 1 1 1 2 3 4 5 7 8 10 10 11 11 11 12 11
1 1 1 1 2 3 3 2 2 1 1 2 2 2 1 1 1 1 2 2 4 6 7 7 7 8 9 8 6 5 5 6 6 4 4 3 3 3 1 1 2 2 2 2 5 6 8 10 11 12 12 13 12 12
0 1 2 1 2 3 1 1 2 1 3 3 3 2 2 2 3 4 5 5 7 7 6 8 10 9 8 8 7 4 3 4 4 2 2 1 3 4 2 2 2 1 1 3 6 8 11 13 16 16 15 14 14 14
1 1 2 2 2 0 2 1 3 4 4 3 2 4 3 1 3 9 10 8 6 6 8 9 9 8 8 7 6 5 4 6 5 4 2 2 2 3 3 3 2 3 4 6 7 9 11 13 13 14 15 14 14 15
2 3 2 2 2 3 1 2 2 2 2 4 5 3 2 3 4 5 8 12 11 10 10 7 9 9 5 4 5 4 5 5 5 5 5 4 5 5 5 5 5 5 6 7 8 10 12 12 13 14 16 16 16 17
3 3 4 3 2 2 2 2 3 3 3 3 3 3 4 3 4 2 3 10 9 11 11 9 6 6 5 5 5 4 5 6 8 8 7 9 9 8 7 7 7 9 10 10 11 12 13 16 16 17 18 19 19 19
Wind_Direction
231 216 209 207 206 204 205 207 208 208 211 213 209 220 216 184 154 145 148 161 139 168 224 262 199 210 210 212 208 177 159 237 200 215 206 221 232 238 242 236 178 191 201 219 234 244 249 231 140 213 256 166 172 196
223 208 202 198 198 197 199 200 200 201 203 205 194 202 207 154 153 138 136 157 151 82 33 347 58 47 357 319 281 209 218 178 205 222 228 241 240 236 236 241 238 224 221 235 222 231 253 181 196 212 280 283 219 261
219 202 194 191 190 189 191 191 193 192 194 194 186 190 183 166 155 153 136 147 106 104 164 188 175 147 55 47 63 248 226 234 244 233 260 255 237 214 227 230 243 239 234 260 251 264 249 234 250 269 261 247 272 250
204 193 184 183 181 181 182 182 184 185 182 183 181 177 174 168 166 144 144 162 145 140 137 158 128 156 151 127 108 27 317 335 314 269 243 243 254 253 257 256 251 245 222 232 250 264 263 270 271 287 279 234 260 250
188 182 175 173 171 173 173 174 175 182 182 178 169 161 167 160 156 126 120 167 198 271 160 150 164 165 176 142 136 353 273 250 231 227 229 232 237 243 259 263 255 245 231 238 233 234 235 260 245 248 252 260 236 226
171 170 164 162 162 164 166 165 167 173 175 170 163 166 162 146 148 113 53 222 201 196 152 160 140 164 190 196 199 263 265 247 247 247 247 246 245 263 235 236 237 238 227 230 256 275 288 281 212 216 243 233 222 223
149 152 152 153 155 157 156 158 162 165 167 165 163 163 157 153 149 167 149 180 170 186 187 149 157 172 175 173 211 220 248 217 232 243 241 250 236 214 251 249 231 220 250 254 253 258 250 226 245 205 216 215 195 220
139 141 142 145 148 148 149 152 155 156 158 159 159 154 145 140 133 194 66 144 147 139 248 176 109 137 168 185 201 194 188 194 208 231 275 235 240 236 251 251 241 248 250 243 246 221 247 291 202 201 206 194 200 205
128 132 137 138 139 141 143 147 146 143 142 149 135 130 121 94 184 143 144 141 156 238 182 190 182 167 176 208 192 169 184 195 186 221 215 202 225 229 218 225 232 236 236 226 227 224 214 219 219 201 207 207 222 212
123 126 126 128 130 134 138 136 135 134 136 126 116 94 179 148 129 123 132 175 196 191 347 201 223 159 181 187 177 162 191 221 219 202 186 226 239 234 235 227 241 225 207 198 180 197 207 213 213 207 211 221 229 232
116 118 122 128 130 132 136 128 130 137 129 165 133 91 123 125 147 142 153 170 158 186 180 219 207 164 177 176 180 226 208 237 233 162 210 215 241 233 231 233 211 230 190 186 193 175 196 214 207 198 193 189 191 197
114 118 123 126 129 131 129 128 127 110 127 137 118 115 148 183 171 137 163 151 199 208 167 189 194 184 138 139 199 184 234 209 260 153 208 246 207 97 122 223 129 190 166 163 167 152 125 122 112 142 157 165 158 121
114 119 124 126 131 132 139 138 134 113 113 132 146 132 178 163 173 194 171 192 194 169 173 179 159 144 138 225 182 230 236 210 156 195 227 226 109 110 101 135 160 165 158 148 129 120 118 97 74 109 95 99 124 132
110 116 121 126 133 136 136 119 130 360 352 165 146 126 231 167 232 192 242 214 127 161 180 171 151 170 168 188 171 246 185 209 224 227 220 130 116 114 118 133 142 140 85 103 95 95 103 103 98 99 117 135 140 141
118 126 129 132 133 127 142 125 11 351 327 237 275 131 195 83 48 22 21 282 207 181 171 168 156 167 157 169 210 184 193 228 221 232 67 93 141 142 137 121 103 112 104 114 123 117 117 116 116 117 122 132 135 140
122 118 129 137 137 82 158 286 304 330 351 353 41 320 257 280 190 161 198 252 219 170 172 176 159 173 184 196 199 212 211 222 130 72 106 127 127 116 123 123 122 122 122 128 134 123 126 137 145 130 129 134 138 144
120 138 166 172 138 99 1 326 334 352 351 336 132 244 303 295 343 103 177 247 192 176 191 173 185 203 150 206 216 214 263 53 115 133 133 123 155 144 130 122 118 125 127 126 128 134 131 130 132 139 144 142 139 142
151 172 187 246 239 318 324 355 336 278 261 260 287 95 256 318 290 195 219 242 214 209 216 240 124 204 203 204 171 112 131 123 88 92 110 127 122 119 140 132 126 130 133 138 140 137 144 150 155 161 140 150 140 142
286 184 214 230 205 289 301 275 258 269 267 293 275 256 260 254 253 258 221 226 217 237 175 209 212 220 147 62 99 102 139 158 149 132 107 89 107 115 120 124 128 132 138 144 155 162 159 164 158 156 159 167 160 161
236 235 228 234 237 290 265 254 258 273 285 33 280 284 335 8 354 303 172 176 185 209 187 228 46 74 17 66 63 158 153 151 144 156 142 131 132 136 144 157 154 148 144 148 148 150 148 150 155 157 162 172 165 168
179 183 203 166 185 244 289 281 246 286 288 285 30 305 106 182 206 50 94 237 176 206 148 75 118 105 89 102 105 121 134 164 164 196 173 163 158 153 152 147 154 165 165 173 171 150 177 149 155 147 156 162 165 159
184 178 170 183 219 219 256 220 290 289 254 339 184 258 241 166 125 76 338 190 166 142 141 156 148 144 137 131 119 109 118 121 113 104 90 125 150 159 164 165 170 170 169 171 179 165 170 160 149 154 163 152 150 155
137 148 170 192 209 231 251 234 243 237 241 239 184 224 204 178 112 199 216 195 115 173 148 141 143 133 123 125 118 116 128 146 143 130 142 135 119 123 145 161 164 169 174 176 175 162 168 158 163 164 157 161 163 159
102 90 131 186 257 219 279 229 248 224 262 234 222 234 192 161 176 229 232 186 117 159 156 151 147 139 139 153 146 129 120 119 119 120 145 160 169 165 162 160 171 176 182 153 185 177 158 176 170 174 175 175 174 172
206 46 288 172 233 205 212 209 223 224 240 214 226 232 179 203 216 221 227 162 177 170 156 168 175 176 167 138 143 130 130 148 150 136 148 124 101 135 154 164 166 165 167 168 179 183 178 176 185 184 183 185 179 177
166 36 303 241 213 235 199 235 212 223 213 217 223 321 236 234 227 232 189 141 165 157 164 171 169 167 162 163 155 161 149 148 173 169 145 160 187 225 217 201 192 205 203 197 187 190 185 187 189 186 185 183 177 174
140 134 157 123 265 262 239 235 236 238 218 219 205 202 211 231 231 123 99 58 101 91 137 164 188 203 164 149 130 127 132 116 93 75 104 123 91 64 311 337 27 60 151 180 192 198 192 190 192 189 181 172 176 177
68 8 215 340 251 258 257 250 229 225 216 170 238 209 229 255 15 70 46 85 125 135 127 118 126 142 147 147 143 140 123 122 121 118 121 127 98 104 81 136 168 196 142 179 203 210 198 185 181 179 173 168 163 162
180 0 278 255 253 224 233 247 255 235 15 238 262 234 266 47 28 181 135 106 138 145 138 135 125 131 129 129 129 139 148 165 188 200 235 242 182 169 133 150 172 162 182 195 207 194 194 179 168 165 157 152 151 151
201 341 265 238 243 236 170 264 310 15 264 290 305 266 245 219 214 205 204 196 194 197 189 176 163 173 167 169 156 145 160 194 217 280 271 246 101 104 152 168 176 165 176 180 143 139 155 145 140 135 134 138 142 141
326 259 261 260 271 353 47 357 265 250 252 252 219 270 305 7 235 219 211 205 196 174 175 176 180 185 172 178 188 181 184 188 190 188 179 140 137 148 148 145 145 148 149 149 150 152 150 148 148 146 146 143 142 141
236 227 254 256 254 127 265 257 274 265 245 243 242 216 215 238 255 176 200 192 194 198 200 200 192 173 161 144 162 152 133 123 158 177 179 170 159 147 141 134 129 132 136 138 140 143 146 142 142 139 135 135 134 132
257 240 244 256 233 230 160 255 242 267 235 248 243 226 230 250 262 120 182 196 212 210 190 183 148 142 157 158 158 156 148 158 171 166 154 152 148 143 134 129 127 127 127 125 125 129 130 130 129 128 127 127 126 126
Height
571 579 589 600 612 622 631 640 648 655 660 665 669 671 670 677 676 684 698 707 712 715 720 718 711 714 712 714 726 734 746 750 743 746 743 733 729 726 726 724 735 744 751 747 744 741 737 720 733 741 730 731 733 737
558 566 579 591 604 615 625 634 643 651 657 663 667 670 669 672 684 690 701 708 716 719 726 719 719 721 724 721 720 724 731 726 738 730 723 720 722 722 723 731 722 731 729 729 730 727 719 718 723 728 729 730 734 737
549 555 569 584 597 610 621 631 640 649 655 661 667 671 672 676 686 692 696 708 714 720 726 723 722 726 727 727 729 731 729 725 726 723 726 721 722 717 726 725 722 719 720 722 727 721 718 723 723 723 725 731 734 738
541 550 563 580 594 607 619 629 638 647 654 661 667 672 677 679 687 690 698 707 711 715 720 725 723 727 731 732 734 737 734 731 733 728 728 728 727 717 721 719 719 719 721 723 721 726 719 718 721 724 725 729 736 739
537 547 562 578 593 607 619 629 638 646 653 661 668 675 681 687 692 699 704 710 714 714 713 718 723 727 732 733 735 738 739 737 736 737 733 727 721 722 725 723 717 714 717 720 720 717 721 720 723 727 729 730 732 738
536 547 563 580 595 609 621 631 640 648 655 662 669 677 684 690 696 702 713 713 713 715 715 719 716 723 730 733 736 739 742 741 740 736 732 723 719 723 725 718 714 713 712 717 718 717 717 721 727 729 729 730 732 735
541 553 570 587 601 613 624 634 642 650 657 664 672 680 687 691 697 701 699 701 709 717 712 716 716 721 726 733 738 740 743 741 743 738 731 725 722 727 721 715 709 712 714 715 715 718 721 724 722 727 731 732 735 736
552 566 581 596 609 620 630 639 646 654 662 670 678 685 691 698 702 702 703 705 713 715 713 708 711 721 726 732 735 737 737 740 742 740 736 724 722 723 718 712 709 708 709 710 714 715 716 720 722 727 730 732 734 735
570 582 596 608 618 629 638 645 653 661 668 675 682 689 697 700 703 704 708 713 717 720 709 705 705 712 724 723 726 728 734 733 735 733 727 727 719 711 708 705 702 701 701 706 710 713 718 722 722 725 728 730 731 732
591 602 612 621 630 639 646 653 660 668 674 679 687 698 700 699 702 709 718 717 715 710 708 704 700 708 718 722 721 727 733 724 718 716 721 715 701 694 693 691 692 693 699 702 709 715 717 719 720 723 726 728 731 732
612 619 627 634 641 648 653 660 664 673 681 683 690 692 700 704 707 707 712 707 706 708 703 702 698 705 712 715 717 721 716 712 700 703 700 691 686 681 683 684 689 693 696 703 707 710 713 716 717 722 728 732 736 738
630 636 641 647 652 657 661 668 669 673 678 680 685 697 703 703 700 701 700 698 695 692 691 695 696 699 710 713 714 721 711 707 698 699 699 683 672 679 684 686 692 698 702 706 711 714 717 720 722 725 730 735 739 742
648 651 655 660 664 668 673 675 679 678 682 686 687 693 691 699 699 697 697 691 689 685 690 691 701 706 716 715 710 713 705 697 693 701 686 671 684 689 693 697 701 704 707 711 715 719 722 726 729 732 736 739 743 747
663 666 668 671 675 679 681 682 685 683 683 680 682 694 686 692 683 677 679 677 682 685 689 692 704 703 709 705 709 705 700 693 697 692 675 675 689 698 702 704 706 709 715 716 721 726 729 732 735 737 740 743 745 748
675 677 679 682 685 687 687 688 687 687 685 682 680 682 684 682 684 688 689 690 689 688 688 692 696 697 700 705 701 703 706 694 680 670 681 694 700 705 708 709 715 719 722 725 727 729 732 735 737 741 743 744 746 749
687 689 691 692 693 693 694 693 691 688 687 686 685 688 686 688 688 691 692 691 689 686 688 686 691 698 698 692 693 689 679 675 674 692 702 705 708 710 712 715 719 722 724 727 729 731 734 737 739 741 744 746 748 750
696 696 697 698 697 697 696 694 691 690 688 689 689 692 691 691 688 686 690 690 685 687 685 685 689 687 682 680 677 672 676 689 700 702 704 705 710 713 715 718 721 724 726 728 731 733 736 738 739 742 744 747 749 751
697 699 700 700 700 699 696 695 694 693 691 689 688 689 691 693 691 690 690 689 686 681 677 674 674 677 681 676 669 686 698 703 705 705 707 710 712 715 717 720 723 725 728 730 732 735 737 738 739 741 744 747 749 751
701 701 701 702 702 702 698 696 695 690 690 691 690 691 692 691 691 690 688 686 682 680 678 676 680 672 677 682 691 695 700 701 705 708 712 713 715 717 720 722 725 727 730 731 733 733 735 736 737 740 742 745 746 750
700 700 702 704 705 703 697 695 695 690 685 688 689 688 689 689 691 690 686 684 681 680 680 680 681 689 692 696 695 695 698 701 704 706 711 714 717 719 721 723 725 728 730 732 733 733 734 736 737 739 741 743 745 748
700 700 702 704 705 706 699 693 690 689 687 687 692 691 688 691 688 688 688 688 686 683 686 692 697 700 700 700 700 700 702 703 704 705 707 713 717 718 721 723 725 726 727 729 730 732 733 734 737 740 742 744 746 748
698 699 701 703 702 700 696 695 691 689 688 687 690 691 686 686 687 689 691 686 685 690 691 695 697 699 701 701 702 703 704 706 708 710 711 714 716 719 721 723 724 726 726 729 730 732 734 736 738 740 742 744 746 748
696 698 698 698 699 696 695 694 690 687 687 686 687 686 686 685 687 693 689 687 691 694 693 694 697 699 702 705 706 707 708 708 708 710 713 714 716 718 720 722 724 725 727 728 730 732 734 736 738 740 742 744 746 748
697 699 699 697 695 694 697 692 688 687 687 685 683 686 685 685 687 684 680 683 691 694 695 697 699 703 705 706 705 707 709 709 711 714 714 715 715 717 719 721 723 724 726 727 730 732 733 735 737 739 741 743 745 747
697 703 702 697 697 696 693 692 692 687 686 688 688 685 685 686 683 679 677 683 689 691 694 697 698 699 701 704 707 709 711 711 711 713 716 716 717 718 720 721 722 724 726 727 729 731 732 734 736 737 739 741 743 745
696 703 699 697 694 693 688 688 689 688 688 689 687 687 687 683 682 674 672 682 686 690 693 696 697 699 701 703 706 708 711 713 713 714 716 717 718 718 719 720 721 723 725 726 727 729 731 733 735 736 738 740 743 745
696 698 699 700 699 696 694 695 693 691 689 687 686 689 686 680 671 676 687 690 690 692 693 695 697 698 699 703 707 710 712 713 714 716 717 718 719 720 720 720 720 723 723 725 726 728 729 731 733 735 737 739 742 744
698 700 698 699 697 698 696 694 692 688 688 690 692 687 682 675 676 689 692 694 694 695 696 698 699 700 702 705 707 710 712 714 715 716 718 719 719 719 719 720 721 722 723 724 725 726 727 729 731 734 736 739 742 745
699 701 701 702 701 695 694 692 689 689 691 691 687 683 683 689 694 694 695 695 696 696 698 699 702 703 705 707 708 710 711 713 715 715 716 715 717 719 720 721 721 722 723 723 724 725 727 728 731 733 736 739 742 745
701 704 698 700 700 691 691 695 694 695 695 693 692 690 689 691 694 695 695 696 696 696 697 698 701 702 703 705 707 710 711 712 713 714 714 714 716 718 719 720 721 722 722 723 724 725 727 729 731 734 737 741 744 747
701 702 699 696 691 692 694 697 696 696 695 691 691 690 687 690 692 692 693 693 694 695 696 697 699 700 701 703 705 707 709 711 712 714 715 716 717 718 719 720 720 721 722 723 725 726 728 730 733 736 739 742 745 748
699 697 696 694 690 695 697 694 693 692 688 688 686 687 690 689 685 685 687 689 691 692 693 694 696 698 700 702 704 705 707 709 710 712 714 715 717 718 719 720 721 722 723 724 725 727 729 731 734 737 741 744 748 751
696 695 694 693 689 690 693 695 689 687 687 684 682 683 684 682 677 680 684 686 688 688 690 693 695 697 699 701 703 705 707 708 709 711 712 714 716 717 719 720 721 723 724 726 728 730 732 734 737 741 744 748 751 755